[[{"header":{"parameterUnit":"m.s-1","parameterCategory":1,"la1":30.2991,"la2":30.254,"lo1":-89.0895,"lo2":-89.0444,"dy":0.0017,"dx":0.0017,"nx":28,"ny":28,"refTime":"2025-03-26T21:00:00:Z","depth":0,"parameterNumber":2,"parameterNumberName":"U-component_of_WINDS"},"data":[0,0,0,0,0,0,0,0,0,0,0,0,0,0,0,0,0,0,0,0,0,0,0,0,0,0,0,0,0,0,0,0,0,0,0,0,0,0,0,0,0,0,0,0,0,0,0,0,0,0,0,0,0,0,0,0,0,0,-3.1344,-3.1345,0,-3.1485,-3.1486,-3.1488,-3.1573,-3.1574,-3.1574,-3.1575,-3.1721,-3.1724,-3.1728,0,0,0,0,0,0,0,0,0,0,0,0,0,-3.1152,-3.1155,-3.1343,-3.1345,-3.1347,-3.1485,-3.1486,-3.1488,-3.1573,-3.1574,-3.1574,-3.1575,-3.172,-3.1724,-3.1728,0,0,0,0,0,0,0,0,0,0,0,0,0,-3.1258,-3.1156,-3.1343,-3.1406,-3.1413,-3.1484,-3.1487,-3.1489,-3.1573,-3.1574,-3.1574,-3.1575,-3.1718,-3.1723,-3.1729,-3.1749,0,0,-3.1745,-3.1747,0,0,0,0,0,0,0,0,-3.1252,-3.1265,-3.1395,-3.1402,-3.141,-3.1512,-3.1473,-3.1576,-3.1573,-3.1512,-3.1575,-3.1575,-3.1651,-3.1662,-3.1687,-3.1756,-3.1762,-3.1745,-3.1748,-3.1751,-3.1752,0,0,0,0,0,0,0,-3.1245,-3.126,-3.14,-3.1397,-3.1406,-3.1429,-3.1444,-3.1493,-3.1577,-3.1518,-3.1524,-3.154,-3.1655,-3.1682,-3.1691,-3.1764,-3.1745,-3.175,-3.1753,-3.1755,-3.1862,-3.1862,0,0,0,0,0,0,-3.1227,-3.1253,-3.1395,-3.1404,-3.1331,-3.1431,-3.1449,-3.1479,-3.1576,-3.1592,-3.1539,-3.1543,-3.1672,-3.1685,-3.1696,-3.173,-3.175,-3.1755,-3.1758,-3.1862,-3.1862,-3.1862,0,0,0,0,0,0,-3.1222,-3.1239,-3.1389,-3.133,-3.1351,-3.1434,-3.1467,-3.1481,-3.1508,-3.1592,-3.1608,-3.155,-3.1673,-3.1689,-3.1736,-3.1736,-3.1758,-3.1763,-3.1863,-3.1862,-3.1862,-3.1794,0,0,0,0,0,0,-3.1217,-3.1237,-3.1244,-3.133,-3.1354,-3.1425,-3.1466,-3.1483,-3.1516,-3.1523,-3.1607,-3.1622,-3.1675,-3.1728,-3.1741,-3.1744,-3.1767,-3.1863,-3.1862,-3.1862,-3.1797,-3.1791,-3.1787,0,0,0,0,0,-3.1209,-3.1218,-3.1243,-3.126,-3.1364,-3.1424,-3.1439,-3.1499,-3.1516,-3.1525,-3.158,-3.1619,-3.1734,-3.1732,-3.1748,-3.1752,-3.1863,-3.1863,-3.1862,-3.1799,-3.1792,-3.1787,0,0,0,0,0,0,-3.1129,-3.123,-3.126,-3.1296,-3.1351,-3.1439,-3.1451,-3.149,-3.1541,-3.1545,-3.1619,-3.1637,-3.1678,-3.172,-3.1716,-3.1779,-3.1803,-3.1806,-3.175,-3.1745,-3.174,-3.1729,-3.1771,0,0,0,0,0,-3.1116,-3.1155,-3.1242,-3.1266,-3.1293,-3.1367,-3.1395,-3.1438,-3.1498,-3.1522,-3.158,-3.1638,-3.1688,-3.1718,-3.1768,-3.1804,-3.1825,-3.1815,-3.181,-3.1805,-3.1806,-3.1832,-3.183,-3.1859,-3.1859,-3.1859,0,0,-3.1088,-3.1149,-3.1169,-3.1252,-3.1299,-3.134,-3.1386,-3.1426,-3.1458,-3.1528,-3.1577,-3.1622,-3.1692,-3.1734,-3.1755,-3.177,-3.1803,-3.1804,-3.18,-3.1804,-3.1831,-3.1828,-3.1826,-3.1859,-3.1859,-3.1859,0,0,-3.106,-3.1108,-3.1136,-3.1183,-3.1255,-3.1305,-3.1312,-3.1395,-3.1428,-3.1478,-3.1532,-3.1572,-3.1655,-3.1704,-3.1739,-3.1734,-3.1773,-3.1748,-3.1722,-3.1747,-3.1744,-3.1743,-3.1744,-3.1743,-3.1749,-3.1749,-3.1749,0,-3.1017,-3.108,-3.1145,-3.1183,-3.122,-3.1286,-3.1316,-3.1359,-3.1443,-3.1468,-3.1483,-3.1591,-3.1642,-3.1699,-3.1698,-3.1724,-3.1736,-3.1739,-3.1739,-3.1738,-3.1738,-3.174,-3.1739,-3.1746,-3.1746,-3.1747,-3.1747,0,-3.1025,-3.1068,-3.1082,-3.1163,-3.1201,-3.1234,-3.1307,-3.1338,-3.1378,-3.1427,-3.148,-3.1545,-3.1611,-3.1627,-3.1666,-3.1691,-3.1698,-3.1725,-3.1751,-3.1731,-3.1734,-3.1734,-3.1741,-3.1742,-3.1743,-3.1744,0,0,-3.0947,-3.1066,-3.107,-3.111,-3.1196,-3.1232,-3.127,-3.1335,-3.1362,-3.1419,-3.1455,-3.1526,-3.1553,-3.1593,-3.1639,-3.166,-3.1656,-3.1686,-3.1689,-3.168,-3.1691,-3.167,-3.167,-3.1683,-3.1683,-3.1683,-3.1686,0,-3.0932,-3.1004,-3.1066,-3.1115,-3.1158,-3.1224,-3.1258,-3.1316,-3.1364,-3.1409,-3.1463,-3.1513,-3.1543,-3.1569,-3.1593,-3.1651,-3.166,-3.1652,-3.1719,-3.1721,-3.17,-3.1671,-3.1649,-3.1648,-3.1687,-3.1687,-3.1688,0,-3.0924,-3.098,-3.1033,-3.112,-3.114,-3.1169,-3.1236,-3.1277,-3.1346,-3.138,-3.1427,-3.1476,-3.1523,-3.1544,-3.1612,-3.1605,-3.1637,-3.167,-3.1672,-3.1681,-3.1703,-3.1681,-3.1648,-3.1649,-3.1689,-3.1689,-3.1689,0,-3.0865,-3.0953,-3.0998,-3.1029,-3.113,-3.115,-3.1193,-3.1262,-3.1299,-3.1358,-3.1383,-3.1446,-3.1481,-3.153,-3.1596,-3.1606,-3.1658,-3.1684,-3.169,-3.1688,-3.1697,-3.1696,-3.1671,-3.1716,-3.1716,-3.1716,-3.1716,0,-3.0842,-3.0873,-3.0973,-3.1001,-3.1039,-3.1111,-3.1147,-3.1196,-3.1258,-3.1298,-3.1359,-3.1396,-3.148,-3.1528,-3.158,-3.163,-3.1644,-3.1675,-3.1689,-3.167,-3.1666,-3.1692,-3.1694,-3.1716,-3.1716,-3.1716,-3.1716,0,-3.0782,-3.085,-3.0903,-3.0995,-3.102,-3.1044,-3.1123,-3.1154,-3.1207,-3.1258,-3.1274,-3.1357,-3.1417,-3.1488,-3.1571,-3.1606,-3.1652,-3.1671,-3.1628,-3.1637,-3.1639,-3.1638,-3.163,-3.1634,-3.1674,-3.1674,-3.1673,0,-3.0763,-3.0789,-3.0885,-3.0916,-3.0957,-3.1006,-3.1045,-3.1118,-3.1156,-3.1239,-3.126,-3.1325,-3.138,-3.1473,-3.1543,-3.1607,-3.163,-3.1623,-3.164,-3.1622,-3.1632,-3.163,-3.1635,-3.1618,-3.1617,-3.1616,-3.1616,0,-3.0724,-3.0758,-3.081,-3.0875,-3.0919,-3.0974,-3.1032,-3.1054,-3.114,-3.118,-3.1242,-3.1285,-3.1371,-3.1436,-3.151,-3.1557,-3.1602,-3.161,-3.1615,-3.1597,-3.1572,-3.1588,-3.1617,-3.161,-3.1611,-3.1611,-3.1611,-3.1612,-3.0686,-3.0713,-3.0786,-3.0843,-3.0895,-3.0948,-3.0983,-3.1041,-3.1094,-3.1169,-3.121,-3.1272,-3.1345,-3.1449,-3.1495,-3.1546,-3.1562,-3.1568,-3.157,-3.1571,-3.1566,-3.1563,-3.156,-3.156,-3.156,-3.1561,-3.1561,0,-3.0652,-3.0703,-3.0755,-3.0834,-3.0881,-3.0919,-3.0986,-3.1022,-3.1076,-3.1139,-3.1194,-3.1267,-3.1331,-3.1407,-3.1476,-3.1503,-3.1526,-3.1519,-3.1518,-3.1529,-3.1548,-3.1537,-3.15,-3.15,-3.15,-3.15,-3.15,-3.15,-3.064,-3.0689,-3.0731,-3.0808,-3.086,-3.092,-3.0956,-3.1007,-3.1058,-3.1137,-3.1191,-3.124,-3.131,-3.1386,-3.1447,-3.1468,-3.1492,-3.1479,-3.1506,-3.1522,-3.1527,-3.1532,-3.1523,-3.1483,-3.1483,-3.1484,-3.1484,-3.1484]},{"header":{"parameterUnit":"m.s-1","parameterCategory":1,"la1":30.2991,"la2":30.254,"lo1":-89.0895,"lo2":-89.0444,"dy":0.0017,"dx":0.0017,"nx":28,"ny":28,"refTime":"2025-03-26T21:00:00:Z","depth":0,"parameterNumber":3,"parameterNumberName":"V-component_of_WINDS"},"data":[0,0,0,0,0,0,0,0,0,0,0,0,0,0,0,0,0,0,0,0,0,0,0,0,0,0,0,0,0,0,0,0,0,0,0,0,0,0,0,0,0,0,0,0,0,0,0,0,0,0,0,0,0,0,0,0,0,0,0.9067,0.9068,0,0.916,0.9161,0.9162,0.9249,0.925,0.9251,0.9252,0.9347,0.9348,0.935,0,0,0,0,0,0,0,0,0,0,0,0,0,0.8967,0.8968,0.9067,0.9068,0.9069,0.916,0.9161,0.9162,0.9249,0.925,0.9251,0.9253,0.9346,0.9348,0.935,0,0,0,0,0,0,0,0,0,0,0,0,0,0.903,0.8968,0.9067,0.9124,0.913,0.9159,0.9161,0.9162,0.9249,0.925,0.9252,0.9253,0.9346,0.9348,0.935,0.9331,0,0,0.9357,0.9358,0,0,0,0,0,0,0,0,0.9026,0.9033,0.9114,0.912,0.9126,0.9195,0.916,0.9219,0.9248,0.9203,0.9252,0.9254,0.9295,0.9301,0.9315,0.9336,0.934,0.9357,0.9358,0.9359,0.936,0,0,0,0,0,0,0,0.9022,0.903,0.9104,0.9115,0.9123,0.9145,0.9156,0.9172,0.9239,0.9207,0.9214,0.9224,0.9298,0.9313,0.9318,0.9341,0.9357,0.9359,0.936,0.9361,0.9353,0.9351,0,0,0,0,0,0,0.9008,0.9026,0.9101,0.9107,0.9079,0.9145,0.9157,0.9171,0.9239,0.9251,0.9222,0.9227,0.9308,0.9315,0.9322,0.9305,0.9359,0.9362,0.9363,0.9355,0.9353,0.9351,0,0,0,0,0,0,0.9006,0.9014,0.9097,0.9068,0.908,0.9145,0.916,0.9172,0.9186,0.925,0.9262,0.9224,0.931,0.9318,0.9329,0.931,0.9363,0.9365,0.9356,0.9354,0.9352,0.9271,0,0,0,0,0,0,0.9003,0.9013,0.9006,0.9067,0.9081,0.9102,0.9159,0.9173,0.919,0.9198,0.9255,0.9266,0.9312,0.9325,0.9331,0.9314,0.9366,0.9358,0.9355,0.9353,0.9276,0.9266,0.9258,0,0,0,0,0,0.8999,0.8979,0.9005,0.9014,0.9074,0.9101,0.9109,0.9161,0.9188,0.9182,0.9223,0.9265,0.9311,0.9325,0.9333,0.9316,0.936,0.9356,0.9353,0.928,0.9268,0.9258,0,0,0,0,0,0,0.8913,0.8988,0.9018,0.9017,0.9052,0.9115,0.9109,0.9147,0.9175,0.9181,0.9245,0.9257,0.926,0.9289,0.9304,0.9302,0.9341,0.9339,0.9283,0.9273,0.9264,0.9257,0.9368,0,0,0,0,0,0.8894,0.8909,0.8974,0.8967,0.8983,0.9043,0.9056,0.9094,0.9133,0.9148,0.919,0.9226,0.9249,0.9262,0.9287,0.9281,0.9295,0.9273,0.9264,0.9257,0.9254,0.9254,0.9246,0.9339,0.9339,0.9339,0,0,0.8855,0.8898,0.8904,0.8951,0.8983,0.8998,0.9055,0.9068,0.9079,0.915,0.9162,0.9194,0.9239,0.9241,0.9244,0.9265,0.9232,0.9252,0.9246,0.9247,0.925,0.9241,0.9233,0.9337,0.9337,0.9338,0,0,0.8792,0.8825,0.8824,0.8855,0.8902,0.8942,0.8942,0.9,0.9024,0.9038,0.9091,0.9107,0.9144,0.9174,0.9194,0.9145,0.9184,0.9151,0.9105,0.9104,0.9097,0.9091,0.9074,0.9067,0.9148,0.9148,0.9148,0,0.8737,0.8762,0.8819,0.8829,0.8849,0.8914,0.8914,0.8941,0.8993,0.9006,0.9029,0.9079,0.9113,0.9124,0.9112,0.9126,0.9128,0.9144,0.9093,0.9088,0.9083,0.9067,0.9061,0.9143,0.9144,0.9144,0.9145,0,0.8693,0.8709,0.8703,0.8752,0.8772,0.8776,0.8835,0.8847,0.8884,0.8922,0.8936,0.898,0.9015,0.902,0.9055,0.9037,0.9049,0.9081,0.9122,0.9069,0.9055,0.905,0.9137,0.9139,0.914,0.9141,0,0,0.8577,0.866,0.8656,0.868,0.8738,0.8752,0.876,0.8795,0.8805,0.884,0.8849,0.888,0.8912,0.8935,0.8974,0.8974,0.8933,0.9007,0.901,0.8992,0.8916,0.8891,0.8883,0.896,0.8959,0.8958,0.8913,0,0.8524,0.8543,0.8595,0.8598,0.8614,0.8677,0.8685,0.8721,0.8757,0.8777,0.8817,0.8838,0.8878,0.8892,0.8895,0.8937,0.8918,0.8941,0.8969,0.897,0.8956,0.8876,0.8849,0.8804,0.8908,0.8907,0.8906,0,0.8464,0.8495,0.8499,0.8558,0.8567,0.8572,0.861,0.8627,0.867,0.8697,0.8723,0.8767,0.8781,0.8818,0.8838,0.8852,0.8867,0.889,0.889,0.8894,0.8934,0.8879,0.8791,0.8784,0.8898,0.8899,0.89,0,0.838,0.8423,0.8432,0.845,0.8518,0.8521,0.8549,0.8594,0.8613,0.8645,0.8658,0.8691,0.871,0.8735,0.8787,0.881,0.8802,0.8843,0.8825,0.8823,0.882,0.8819,0.8733,0.8829,0.8829,0.8829,0.8829,0,0.8315,0.8315,0.8395,0.84,0.8403,0.8464,0.8465,0.85,0.8539,0.8553,0.861,0.8622,0.869,0.871,0.8751,0.8762,0.877,0.8792,0.8803,0.8787,0.8784,0.8798,0.8802,0.8827,0.8827,0.8828,0.8828,0,0.8221,0.8274,0.8288,0.8352,0.8368,0.8367,0.8423,0.8431,0.8471,0.8487,0.8495,0.8558,0.8584,0.8639,0.8681,0.8709,0.871,0.8729,0.8695,0.8702,0.868,0.8682,0.86,0.8593,0.8692,0.8691,0.869,0,0.8176,0.8178,0.8243,0.8256,0.8282,0.8303,0.8322,0.8383,0.84,0.8451,0.8453,0.8484,0.8512,0.8552,0.8601,0.8634,0.8655,0.8624,0.866,0.8644,0.8655,0.8654,0.8656,0.8616,0.8614,0.8613,0.8612,0,0.8091,0.8118,0.8143,0.8178,0.8199,0.823,0.8263,0.8271,0.834,0.8357,0.8385,0.8407,0.845,0.848,0.8521,0.8551,0.8593,0.8601,0.8598,0.8582,0.8562,0.8573,0.8674,0.8602,0.8603,0.8604,0.8605,0.8605,0.8021,0.8027,0.8073,0.81,0.8131,0.8162,0.8173,0.8215,0.8239,0.8279,0.8313,0.8338,0.8384,0.8442,0.847,0.8491,0.8512,0.8508,0.8507,0.8505,0.8499,0.8559,0.8498,0.8499,0.8499,0.85,0.85,0,0.794,0.7973,0.7997,0.8043,0.8064,0.8102,0.8142,0.8157,0.8179,0.8217,0.8244,0.8277,0.8307,0.836,0.8395,0.8402,0.8422,0.8409,0.8409,0.8416,0.8478,0.8477,0.8392,0.8392,0.8392,0.8392,0.8392,0.8392,0.79,0.7911,0.7943,0.7972,0.8005,0.803,0.805,0.8079,0.811,0.8144,0.817,0.8204,0.8248,0.8287,0.8317,0.8332,0.8343,0.8323,0.8344,0.8401,0.8411,0.8421,0.842,0.8325,0.8325,0.828,0.828,0.828]}]]